World > North America > United States > New York > Tribes Hill  

Tribes Hill, NY Hourly Weather Updates

Feedback E-mail the Weather

Quick Clicks

Tribes Hill, NY Weather Maps

°F °C°F °C
Tribes Hill Weather Map
UTC Time: 6/25/2024, 15:21
Your Time:

Tribes Hill, NY Regional Weather

Expires:202406251600;;908096
ASUS41 KALY 251510
RWRALY

NEW YORK STATE HOURLY WEATHER ROUNDUP
NATIONAL WEATHER SERVICE ALBANY NY
1100 AM EDT TUE JUN 25 2024

NOTE: "FAIR" INDICATES FEW OR NO CLOUDS BELOW 12,000 FEET WITH NO
SIGNIFICANT WEATHER AND/OR NO OBSTRUCTIONS TO VISIBILITY.


NYZ032-033-038>043-046>054-057>066-NYZ062>081-082-084-251600-
EAST

  
CITY           SKY/WX    TMP DP  RH WIND       PRES   REMARKS
ALBANY         MOSUNNY   81  59  47 VRB7      29.90S                  
GLENS FALLS    SUNNY     74  64  71 SE5       29.87F                  
POUGHKEEPSIE   SUNNY     79  60  52 SE3       29.90F                  
NEWBURGH       SUNNY     82  59  44 VRB5      29.92S                  
MONTGOMERY     SUNNY     83  57  41 VRB6      29.91F                  
WHITE PLAINS   SUNNY     81  58  45 W9        29.92S                  
ISLIP          MOSUNNY   84  55  36 NW13G24   29.89S                  
NEW YORK CITY  MOSUNNY   83  53  35 NW15      29.90F                  
CENTRAL PARK   SUNNY     84  53  34 MISG      29.94F                  
$$


SKY/WX - Weather  TMP - Temperature  DP - Dew Point  RH - Humidity
WIND - Wind Direction/Speed PRES - Barometric Pressure VSB - Visibility
WCI - Wind Chill Index E13G22 Wind - East Wind 13 mph/Gusts of 22 mph

Trending Headlines

Trending Entertainment Headlines

Tribes Hill Radar Loop

Use the map search tool if you want to place a location marker on the radar map...

Tribes Hill Quick Facts

National Two Day Weather Forecast


E-mail the Tribes Hill Weather Forecast

Voice your opinion or tell us about page issues...